パンスターズ彗星

P/2018 A5 ( PanSTARRS )

English version
Home page
Updated on February 13, 2018

---------------------------------------------------------------------

・ プロフィール

発見日 2018年1月13日
発見光度 21.4等
発見者 Pan-STARRS 1 telescope (Haleakala)

・ 軌道要素

Epoch 2017 Sept. 4.0 TT = JDT 2458000.5
T 2017 Sept. 23.83268 TT                                MPCW
q   2.6938285            (2000.0)            P               Q
n   0.07340661     Peri.  359.68244     +0.04295249     -0.91564766
a   5.6490999      Node    87.82929     +0.91751486     -0.12216386
e   0.5231402      Incl.   23.57614     +0.39537522     +0.38296912
P  13.43
From 30 observations 2017 Nov. 21-2018 Jan. 17, mean residual 0".3.

・ 光度変化

        m1 = 15.0 + 5 logΔ + 10.0 log r

---------------------------------------------------------------------

軌道要素はM.P.E.C. 2018-B155に掲載されたものです。
光度グラフはComet for Windowsで作成したものです。

---------------------------------------------------------------------

Copyright(C) Seiichi Yoshida (comet@aerith.net). All rights reserved.